NOS735 VRMM-LIMC

Flight info

Callsign NOS735
Flight time N/A
Altitude 34000
Route LELEM2A LELEM L894 KITAL P570 GOLNI N569 TOKRA DCT ALROK DCT BOSOB DCT ITRUX Y511 PMA Z712 WEJ L677 CVO L617 TANSA UL613 KOR UL53 IXONI DCT IPTES UL53 KRK UL995 TIGRA DCT DAMIC DCT FASAN DCT URIPI DCT TUFTE DCT LOMED DCT BEROK DCT MIVKI DCT GOLAS DCT MEBUR
Aircraft B77W/H-SDE1E2E3FGHIJ2J3J4J5M1RWXY/LB1D1

Departure

Time 2026-04-28 15:48
Airport Velana International Airport (VRMM)

Arrival

Time N/A
Airport Milan Malpensa International Airport (LIMC)
Time Latitude Longitude Altitude Speed Heading
2026-04-28 15:30 4.18061 73.52774 17 ft 0 kts 269°
2026-04-28 15:40 4.18061 73.52777 17 ft 2 kts 269°
2026-04-28 15:40 4.18061 73.52796 17 ft 3 kts 269°
2026-04-28 15:41 4.18062 73.52816 17 ft 3 kts 269°
2026-04-28 15:41 4.18062 73.52834 17 ft 2 kts 269°
2026-04-28 15:41 4.18061 73.52853 17 ft 3 kts 294°
2026-04-28 15:41 4.18051 73.52866 21 ft 3 kts 343°
2026-04-28 15:42 4.18032 73.52868 21 ft 3 kts
2026-04-28 15:42 4.18014 73.52866 20 ft 2 kts
2026-04-28 15:42 4.18011 73.52866 19 ft 0 kts 359°
2026-04-28 15:44 4.18040 73.52865 20 ft 10 kts 359°
2026-04-28 15:45 4.18100 73.52867 17 ft 7 kts 18°
2026-04-28 15:45 4.18120 73.52907 17 ft 6 kts 75°
2026-04-28 15:45 4.18155 73.52926 17 ft 6 kts
2026-04-28 15:45 4.18187 73.52941 17 ft 5 kts 46°
2026-04-28 15:46 4.18195 73.52978 17 ft 6 kts 85°
2026-04-28 15:46 4.18197 73.53017 17 ft 6 kts 87°
2026-04-28 15:46 4.18198 73.53057 17 ft 6 kts 88°
2026-04-28 15:46 4.18204 73.53095 17 ft 6 kts 60°
2026-04-28 15:47 4.18227 73.53101 17 ft 0 kts
2026-04-28 15:47 4.18305 73.53102 17 ft 32 kts
2026-04-28 15:48 4.18797 73.53102 17 ft 107 kts 360°
2026-04-28 15:48 4.19768 73.53100 18 ft 170 kts
2026-04-28 15:48 4.21032 73.53093 362 ft 181 kts 356°
2026-04-28 15:48 4.22271 73.53080 1006 ft 184 kts 358°
2026-04-28 15:49 4.23619 73.53077 1391 ft 197 kts 360°
2026-04-28 15:49 4.24984 73.53085 2062 ft 194 kts 359°
2026-04-28 15:49 4.26333 73.52961 2529 ft 197 kts 333°
2026-04-28 15:49 4.27426 73.52122 2787 ft 206 kts 315°
2026-04-28 15:50 4.28530 73.51089 3061 ft 224 kts 316°
2026-04-28 15:50 4.29710 73.50018 3562 ft 235 kts 317°
2026-04-28 15:50 4.30992 73.48868 3807 ft 258 kts 317°
2026-04-28 15:50 4.32405 73.47611 4053 ft 285 kts 318°
2026-04-28 15:51 4.33957 73.46243 4382 ft 307 kts 318°
2026-04-28 15:51 4.35590 73.44810 5067 ft 316 kts 319°
2026-04-28 15:51 4.37261 73.43350 5834 ft 322 kts 319°
2026-04-28 15:51 4.38935 73.41893 6644 ft 326 kts 319°
2026-04-28 15:52 4.40665 73.40390 7389 ft 331 kts 320°
2026-04-28 15:52 4.42423 73.38865 8094 ft 337 kts 320°
2026-04-28 15:52 4.44207 73.37319 8851 ft 341 kts 320°
2026-04-28 15:52 4.46013 73.35755 9599 ft 346 kts 320°
2026-04-28 15:53 4.47844 73.34170 10282 ft 350 kts 320°
2026-04-28 15:53 4.49696 73.32567 10993 ft 353 kts 320°
2026-04-28 15:53 4.51561 73.30951 11688 ft 356 kts 320°
2026-04-28 15:53 4.53442 73.29321 12358 ft 360 kts 320°
2026-04-28 15:54 4.55353 73.27665 13025 ft 364 kts 320°
2026-04-28 15:54 4.57280 73.25996 13726 ft 367 kts 320°
2026-04-28 15:54 4.59222 73.24314 14347 ft 370 kts 320°
2026-04-28 15:54 4.61178 73.22618 14915 ft 375 kts 320°
2026-04-28 15:55 4.63162 73.20899 15451 ft 380 kts 320°
2026-04-28 15:55 4.65170 73.19159 16078 ft 383 kts 320°
2026-04-28 15:55 4.67193 73.17406 16681 ft 386 kts 320°
2026-04-28 15:55 4.69219 73.15650 17059 ft 397 kts 320°
2026-04-28 15:56 4.71356 73.13798 17173 ft 414 kts 320°
2026-04-28 15:56 4.73567 73.11882 17440 ft 426 kts 320°
2026-04-28 15:56 4.75829 73.09919 17809 ft 434 kts 320°
2026-04-28 15:56 4.78126 73.07926 18273 ft 438 kts 320°
2026-04-28 15:57 4.80436 73.05921 18789 ft 440 kts 320°
2026-04-28 15:57 4.82753 73.03912 19315 ft 441 kts 320°
2026-04-28 15:57 4.85085 73.01892 19797 ft 444 kts 321°
2026-04-28 15:57 4.87490 72.99936 20243 ft 447 kts 323°
2026-04-28 15:58 4.89951 72.98014 20683 ft 450 kts 323°
2026-04-28 15:58 4.92441 72.96095 21129 ft 453 kts 324°
2026-04-28 15:58 4.94954 72.94164 21606 ft 455 kts 324°
2026-04-28 15:58 4.97474 72.92223 22022 ft 458 kts 324°
2026-04-28 15:59 5.00013 72.90261 22441 ft 461 kts 324°
2026-04-28 15:59 5.01695 72.88957 22716 ft 463 kts 324°
2026-04-28 15:59 5.05086 72.86324 23248 ft 467 kts 324°
2026-04-28 15:59 5.07663 72.84319 23624 ft 470 kts 323°
2026-04-28 16:00 5.10253 72.82303 23949 ft 473 kts 324°
2026-04-28 16:00 5.12861 72.80272 24232 ft 477 kts 323°
2026-04-28 16:00 5.15487 72.78228 24552 ft 479 kts 323°
2026-04-28 16:00 5.18125 72.76173 24894 ft 481 kts 323°
2026-04-28 16:01 5.20772 72.74113 25241 ft 483 kts 323°
2026-04-28 16:01 5.23428 72.72044 25566 ft 485 kts 323°
2026-04-28 16:01 5.26098 72.69965 25876 ft 487 kts 323°
2026-04-28 16:01 5.28782 72.67875 26174 ft 490 kts 323°
2026-04-28 16:02 5.31479 72.65774 26479 ft 492 kts 323°
2026-04-28 16:02 5.34191 72.63661 26777 ft 494 kts 323°
2026-04-28 16:02 5.36913 72.61541 27060 ft 496 kts 323°
2026-04-28 16:02 5.39648 72.59410 27360 ft 498 kts 323°
2026-04-28 16:03 5.42400 72.57265 27622 ft 501 kts 323°
2026-04-28 16:03 5.45159 72.55115 27886 ft 503 kts 323°
2026-04-28 16:03 5.47927 72.52958 28141 ft 505 kts 323°
2026-04-28 16:03 5.50673 72.50817 28396 ft 507 kts 323°
2026-04-28 16:04 5.53462 72.48642 28632 ft 509 kts 323°
2026-04-28 16:04 5.56272 72.46452 28879 ft 511 kts 323°
2026-04-28 16:04 5.59082 72.44261 29108 ft 513 kts 323°
2026-04-28 16:04 5.60987 72.42774 29260 ft 514 kts 323°
2026-04-28 16:05 5.64739 72.39848 29544 ft 516 kts 323°
2026-04-28 16:05 5.67582 72.37630 29780 ft 517 kts 322°
2026-04-28 16:05 5.70416 72.35419 30060 ft 516 kts 322°
2026-04-28 16:05 5.73256 72.33203 30356 ft 515 kts 322°
2026-04-28 16:06 5.76081 72.30998 30655 ft 513 kts 322°
2026-04-28 16:06 5.78861 72.28828 30933 ft 512 kts 322°
2026-04-28 16:06 5.81674 72.26632 31225 ft 511 kts 322°
2026-04-28 16:06 5.84470 72.24449 31590 ft 508 kts 322°
2026-04-28 16:07 5.87253 72.22276 31982 ft 504 kts 322°
2026-04-28 16:07 5.89086 72.20845 32176 ft 503 kts 322°
2026-04-28 16:07 5.94609 72.16531 32688 ft 503 kts 322°
2026-04-28 16:08 5.97369 72.14375 32955 ft 502 kts 322°
2026-04-28 16:08 6.00124 72.12223 33232 ft 501 kts 322°
2026-04-28 16:08 6.02870 72.10077 33514 ft 499 kts 322°
2026-04-28 16:09 6.08366 72.05781 33802 ft 502 kts 322°
2026-04-28 16:09 6.11123 72.03626 33850 ft 503 kts 322°
2026-04-28 16:10 6.19409 71.97147 33863 ft 506 kts 322°
2026-04-28 16:10 6.27740 71.90629 33857 ft 505 kts 322°
2026-04-28 16:11 6.38820 71.81956 33851 ft 504 kts 322°
2026-04-28 16:12 6.47123 71.75463 33852 ft 504 kts 322°
2026-04-28 16:13 6.55421 71.68967 33852 ft 504 kts 322°
2026-04-28 16:14 6.66452 71.60326 33851 ft 504 kts 322°
2026-04-28 16:15 6.77524 71.51647 33847 ft 505 kts 322°
2026-04-28 16:15 6.83068 71.47300 33852 ft 506 kts 322°
2026-04-28 16:16 6.91402 71.40762 33851 ft 506 kts 322°
2026-04-28 16:17 6.99732 71.34225 33850 ft 506 kts 322°
2026-04-28 16:17 7.05289 71.29861 33848 ft 506 kts 322°
2026-04-28 16:18 7.10805 71.25529 33849 ft 506 kts 322°
2026-04-28 16:18 7.16354 71.21170 33849 ft 506 kts 322°
2026-04-28 16:19 7.21904 71.16808 33855 ft 506 kts 322°
2026-04-28 16:19 7.27446 71.12451 33844 ft 505 kts 322°
2026-04-28 16:20 7.32985 71.08094 33844 ft 504 kts 322°
2026-04-28 16:20 7.38512 71.03746 33847 ft 504 kts 322°
2026-04-28 16:21 7.44037 70.99397 33849 ft 504 kts 322°
2026-04-28 16:21 7.49562 70.95048 33850 ft 504 kts 322°
2026-04-28 16:22 7.55047 70.90727 33849 ft 504 kts 322°
2026-04-28 16:22 7.60566 70.86373 33845 ft 504 kts 322°
2026-04-28 16:23 7.66101 70.82004 33844 ft 505 kts 321°
2026-04-28 16:23 7.71628 70.77640 33844 ft 505 kts 322°
2026-04-28 16:24 7.77164 70.73267 33845 ft 505 kts 321°
2026-04-28 16:24 7.82701 70.68892 33843 ft 505 kts 322°
2026-04-28 16:25 7.88239 70.64515 33845 ft 505 kts 321°
2026-04-28 16:25 7.93772 70.60140 33843 ft 505 kts 321°
2026-04-28 16:26 7.99268 70.55793 33845 ft 505 kts 321°
2026-04-28 16:26 8.04794 70.51421 33842 ft 505 kts 321°
2026-04-28 16:27 8.10323 70.47044 33844 ft 505 kts 321°
2026-04-28 16:28 8.18612 70.40480 33844 ft 505 kts 321°
2026-04-28 16:28 8.24141 70.36100 33847 ft 505 kts 321°
2026-04-28 16:29 8.32409 70.29547 33843 ft 505 kts 321°
2026-04-28 16:30 8.40709 70.22965 33843 ft 505 kts 321°
2026-04-28 16:30 8.46240 70.18576 33840 ft 506 kts 321°
2026-04-28 16:31 8.51791 70.14170 33847 ft 508 kts 321°
2026-04-28 16:31 8.57359 70.09750 33850 ft 510 kts 321°
2026-04-28 16:32 8.62946 70.05312 33847 ft 511 kts 321°
2026-04-28 16:32 8.71307 69.98667 33845 ft 512 kts 321°
2026-04-28 16:33 8.75971 69.94959 33842 ft 512 kts 321°
2026-04-28 16:33 8.82521 69.89749 33844 ft 512 kts 321°
2026-04-28 16:34 8.88110 69.85302 33836 ft 511 kts 321°
2026-04-28 16:34 8.93699 69.80853 33842 ft 511 kts 321°
2026-04-28 16:35 8.99291 69.76400 33846 ft 512 kts 321°
2026-04-28 16:35 9.04893 69.71937 33844 ft 513 kts 321°
2026-04-28 16:36 9.10465 69.67495 33845 ft 513 kts 321°
2026-04-28 16:36 9.16079 69.63019 33844 ft 514 kts 321°
2026-04-28 16:37 9.21694 69.58541 33844 ft 514 kts 321°
2026-04-28 16:38 9.30122 69.51814 33843 ft 515 kts 321°
2026-04-28 16:38 9.35744 69.47325 33845 ft 515 kts 321°
2026-04-28 16:39 9.41372 69.42828 33845 ft 515 kts 321°
2026-04-28 16:39 9.47006 69.38326 33844 ft 516 kts 321°
2026-04-28 16:40 9.52637 69.33824 33844 ft 516 kts 321°
2026-04-28 16:40 9.58274 69.29314 33841 ft 516 kts 320°
2026-04-28 16:41 9.63876 69.24830 33845 ft 516 kts 320°
2026-04-28 16:41 9.69514 69.20315 33844 ft 517 kts 320°
2026-04-28 16:42 9.75160 69.15793 33844 ft 517 kts 321°
2026-04-28 16:42 9.80804 69.11271 33842 ft 517 kts 321°
2026-04-28 16:43 9.86452 69.06742 33841 ft 517 kts 321°
2026-04-28 16:43 9.92094 69.02214 33852 ft 516 kts 321°
2026-04-28 16:44 9.97676 68.97733 33838 ft 514 kts 321°
2026-04-28 16:44 10.03269 68.93240 33839 ft 511 kts 321°
2026-04-28 16:45 10.08837 68.88765 33842 ft 510 kts 321°
2026-04-28 16:45 10.14398 68.84293 33842 ft 509 kts 321°
2026-04-28 16:46 10.19956 68.79823 33843 ft 510 kts 321°
2026-04-28 16:46 10.25525 68.75341 33845 ft 511 kts 320°
2026-04-28 16:47 10.31102 68.70851 33845 ft 512 kts 320°
2026-04-28 16:47 10.36655 68.66378 33845 ft 513 kts 320°
2026-04-28 16:48 10.42254 68.61866 33845 ft 514 kts 320°
2026-04-28 16:48 10.47861 68.57345 33844 ft 515 kts 320°
2026-04-28 16:49 10.53471 68.52820 33840 ft 515 kts 320°
2026-04-28 16:49 10.59045 68.48323 33833 ft 507 kts 321°
2026-04-28 16:50 10.64534 68.43891 33839 ft 503 kts 321°
2026-04-28 16:50 10.70025 68.39455 33845 ft 505 kts 321°
2026-04-28 16:51 10.75543 68.34995 33844 ft 507 kts 321°
2026-04-28 16:51 10.81074 68.30523 33842 ft 508 kts 321°
2026-04-28 16:52 10.86620 68.26036 33845 ft 509 kts 321°
2026-04-28 16:52 10.92129 68.21578 33842 ft 509 kts 321°
2026-04-28 16:53 10.97667 68.17093 33847 ft 508 kts 321°
2026-04-28 16:53 11.03188 68.12621 33837 ft 506 kts 321°
2026-04-28 16:54 11.08694 68.08158 33844 ft 505 kts 321°
2026-04-28 16:54 11.14192 68.03700 33839 ft 505 kts 321°
2026-04-28 16:55 11.19691 67.99238 33847 ft 505 kts 321°
2026-04-28 16:55 11.25189 67.94775 33845 ft 505 kts 321°
2026-04-28 16:56 11.30683 67.90313 33843 ft 504 kts 321°
2026-04-28 16:56 11.36166 67.85858 33844 ft 504 kts 321°
2026-04-28 16:57 11.41613 67.81430 33843 ft 504 kts 321°
2026-04-28 16:57 11.47096 67.76970 33844 ft 504 kts 321°
2026-04-28 16:58 11.52575 67.72511 33854 ft 503 kts 320°
2026-04-28 16:58 11.58032 67.68067 33839 ft 501 kts 320°
2026-04-28 16:59 11.62550 67.64387 33839 ft 499 kts 320°
2026-04-28 16:59 11.67972 67.59968 33842 ft 498 kts 320°
2026-04-28 17:00 11.73381 67.55556 33841 ft 497 kts 320°
2026-04-28 17:00 11.78791 67.51142 33842 ft 498 kts 320°
2026-04-28 17:01 11.84173 67.46749 33847 ft 500 kts 320°
2026-04-28 17:01 11.89616 67.42302 33844 ft 502 kts 320°
2026-04-28 17:02 11.95075 67.37841 33847 ft 504 kts 320°
2026-04-28 17:02 12.00558 67.33360 33845 ft 505 kts 320°
2026-04-28 17:03 12.08803 67.26620 33844 ft 506 kts 320°
2026-04-28 17:03 12.14300 67.22121 33837 ft 506 kts 320°
2026-04-28 17:04 12.22562 67.15351 33849 ft 508 kts 321°
2026-04-28 17:05 12.30864 67.08548 33844 ft 511 kts 321°
2026-04-28 17:06 12.39185 67.01721 33842 ft 512 kts 321°
2026-04-28 17:06 12.47514 66.94882 33841 ft 512 kts 320°
2026-04-28 17:07 12.53071 66.90315 33844 ft 512 kts 320°
2026-04-28 17:07 12.58577 66.85788 33846 ft 510 kts 320°
2026-04-28 17:08 12.64106 66.81239 33841 ft 509 kts 320°
2026-04-28 17:08 12.69617 66.76703 33844 ft 508 kts 320°
2026-04-28 17:09 12.75125 66.72167 33843 ft 507 kts 320°
2026-04-28 17:09 12.80620 66.67639 33850 ft 506 kts 319°
2026-04-28 17:10 12.86110 66.63112 33840 ft 505 kts 319°
2026-04-28 17:10 12.91582 66.58597 33844 ft 505 kts 319°
2026-04-28 17:11 12.97046 66.54087 33849 ft 504 kts 319°
2026-04-28 17:11 13.02499 66.49582 33842 ft 503 kts 319°
2026-04-28 17:12 13.07948 66.45079 33847 ft 503 kts 319°
2026-04-28 17:12 13.13358 66.40605 33843 ft 502 kts 319°
2026-04-28 17:13 13.18794 66.36107 33841 ft 502 kts 319°
2026-04-28 17:13 13.24231 66.31605 33844 ft 502 kts 319°
2026-04-28 17:14 13.29669 66.27100 33844 ft 502 kts 319°
2026-04-28 17:14 13.35110 66.22590 33844 ft 502 kts 319°
2026-04-28 17:15 13.40545 66.18083 33846 ft 503 kts 319°
2026-04-28 17:15 13.46002 66.13553 33848 ft 503 kts 319°
2026-04-28 17:16 13.51416 66.09058 33844 ft 504 kts 319°
2026-04-28 17:16 13.56871 66.04525 33844 ft 504 kts 319°
2026-04-28 17:17 13.62328 65.99988 33845 ft 505 kts 319°
2026-04-28 17:17 13.67790 65.95444 33843 ft 505 kts 319°
2026-04-28 17:18 13.73253 65.90897 33845 ft 505 kts 319°
2026-04-28 17:18 13.78709 65.86352 33841 ft 505 kts 319°
2026-04-28 17:19 13.84170 65.81800 33841 ft 505 kts 319°
2026-04-28 17:19 13.89629 65.77248 33841 ft 505 kts 319°
2026-04-28 17:20 13.94167 65.73461 33842 ft 505 kts 319°
2026-04-28 17:20 14.00512 65.68163 33841 ft 505 kts 319°
2026-04-28 17:21 14.05967 65.63605 33841 ft 505 kts 319°
2026-04-28 17:22 14.14152 65.56759 33841 ft 505 kts 319°
2026-04-28 17:22 14.19607 65.52194 33842 ft 505 kts 319°
2026-04-28 17:23 14.27799 65.45333 33840 ft 506 kts 319°
2026-04-28 17:23 14.33262 65.40753 33842 ft 506 kts 319°
2026-04-28 17:24 14.38726 65.36170 33838 ft 506 kts 319°
2026-04-28 17:24 14.44193 65.31580 33842 ft 506 kts 319°
2026-04-28 17:25 14.52345 65.24731 33842 ft 506 kts 319°
2026-04-28 17:26 14.57800 65.20144 33842 ft 506 kts 319°
2026-04-28 17:26 14.63266 65.15548 33839 ft 507 kts 319°
2026-04-28 17:27 14.68734 65.10947 33846 ft 507 kts 318°
2026-04-28 17:27 14.74214 65.06332 33845 ft 508 kts 318°
2026-04-28 17:28 14.79702 65.01706 33845 ft 509 kts 318°
2026-04-28 17:28 14.87927 64.94767 33833 ft 509 kts 318°
2026-04-28 17:29 14.93416 64.90133 33847 ft 508 kts 318°
2026-04-28 17:30 15.01584 64.83230 33846 ft 507 kts 318°
2026-04-28 17:30 15.09770 64.76305 33846 ft 506 kts 318°
2026-04-28 17:31 15.17935 64.69390 33845 ft 505 kts 317°
2026-04-28 17:32 15.26082 64.62484 33838 ft 504 kts 317°
2026-04-28 17:32 15.31507 64.57882 33844 ft 503 kts 317°
2026-04-28 17:33 15.36919 64.53287 33844 ft 503 kts 317°
2026-04-28 17:33 15.41416 64.49466 33844 ft 503 kts 317°
2026-04-28 17:34 15.47700 64.44123 33852 ft 502 kts 317°
2026-04-28 17:34 15.53096 64.39534 33842 ft 501 kts 317°
2026-04-28 17:35 15.58474 64.34955 33843 ft 499 kts 317°
2026-04-28 17:35 15.63837 64.30386 33840 ft 498 kts 317°
2026-04-28 17:36 15.69188 64.25823 33845 ft 497 kts 317°
2026-04-28 17:36 15.74529 64.21266 33844 ft 497 kts 317°
2026-04-28 17:37 15.79873 64.16704 33850 ft 496 kts 317°
2026-04-28 17:37 15.85202 64.12151 33841 ft 495 kts 317°
2026-04-28 17:38 15.90488 64.07631 33841 ft 495 kts 317°
2026-04-28 17:38 15.95803 64.03084 33844 ft 495 kts 317°
2026-04-28 17:39 16.01119 63.98532 33842 ft 495 kts 317°
2026-04-28 17:40 16.09088 63.91704 33838 ft 493 kts 317°
2026-04-28 17:40 16.14377 63.87167 33834 ft 492 kts 317°
2026-04-28 17:41 16.19657 63.82635 33847 ft 491 kts 317°
2026-04-28 17:41 16.24893 63.78138 33837 ft 491 kts 317°
2026-04-28 17:42 16.30158 63.73612 33844 ft 490 kts 317°
2026-04-28 17:42 16.35418 63.69087 33851 ft 490 kts 317°
2026-04-28 17:43 16.40672 63.64565 33840 ft 489 kts 317°
2026-04-28 17:43 16.45917 63.60046 33840 ft 489 kts 317°
2026-04-28 17:44 16.51158 63.55528 33838 ft 489 kts 317°
2026-04-28 17:44 16.56398 63.51007 33838 ft 489 kts 317°
2026-04-28 17:45 16.61634 63.46487 33845 ft 489 kts 317°
2026-04-28 17:45 16.66864 63.41969 33836 ft 488 kts 316°
2026-04-28 17:46 16.72053 63.37482 33835 ft 488 kts 316°
2026-04-28 17:46 16.77280 63.32959 33835 ft 488 kts 316°
2026-04-28 17:47 16.82499 63.28439 33836 ft 488 kts 316°
2026-04-28 17:47 16.86841 63.24677 33834 ft 488 kts 316°
2026-04-28 17:48 16.92064 63.20148 33833 ft 488 kts 316°
2026-04-28 17:48 16.97289 63.15612 33834 ft 488 kts 316°
2026-04-28 17:49 17.02510 63.11066 33831 ft 488 kts 316°
2026-04-28 17:49 17.07659 63.06418 33830 ft 489 kts 315°
2026-04-28 17:50 17.12752 63.01758 33831 ft 490 kts 315°
2026-04-28 17:50 17.17896 62.97061 33832 ft 491 kts 315°
2026-04-28 17:51 17.23047 62.92371 33826 ft 490 kts 315°
2026-04-28 17:51 17.28190 62.87691 33825 ft 489 kts 315°
2026-04-28 17:52 17.33318 62.83022 33827 ft 488 kts 315°
2026-04-28 17:52 17.41004 62.76014 33825 ft 488 kts 315°
2026-04-28 17:53 17.46124 62.71341 33835 ft 488 kts 315°
2026-04-28 17:53 17.51235 62.66674 33824 ft 487 kts 315°
2026-04-28 17:54 17.56345 62.62003 33824 ft 487 kts 315°
2026-04-28 17:54 17.61442 62.57339 33821 ft 486 kts 315°
2026-04-28 17:55 17.66540 62.52672 33821 ft 486 kts 315°
2026-04-28 17:55 17.71636 62.48002 33828 ft 486 kts 315°
2026-04-28 17:56 17.76708 62.43351 33826 ft 487 kts 315°
2026-04-28 17:56 17.81816 62.38664 33814 ft 488 kts 315°
2026-04-28 17:57 17.86925 62.33973 33817 ft 488 kts 315°
2026-04-28 17:57 17.92039 62.29272 33816 ft 488 kts 315°
2026-04-28 17:58 17.97154 62.24567 33815 ft 488 kts 315°
2026-04-28 17:58 18.02266 62.19860 33817 ft 489 kts 316°
2026-04-28 17:59 18.07394 62.15136 33817 ft 491 kts 316°
2026-04-28 17:59 18.12532 62.10398 33814 ft 492 kts 316°
2026-04-28 18:00 18.17680 62.05648 33813 ft 492 kts 316°
2026-04-28 18:00 18.22800 62.00919 33814 ft 493 kts 316°
2026-04-28 18:01 18.27958 61.96151 33809 ft 494 kts 316°
2026-04-28 18:01 18.33129 61.91367 33807 ft 495 kts 316°
2026-04-28 18:02 18.38314 61.86567 33804 ft 496 kts 316°
2026-04-28 18:02 18.43503 61.81758 33806 ft 497 kts 316°
2026-04-28 18:03 18.48670 61.76967 33802 ft 497 kts 316°
2026-04-28 18:03 18.53863 61.72146 33804 ft 497 kts 317°
2026-04-28 18:04 18.59061 61.67318 33799 ft 497 kts 317°
2026-04-28 18:04 18.64251 61.62492 33800 ft 497 kts 317°
2026-04-28 18:05 18.68562 61.58482 33795 ft 497 kts 317°
2026-04-28 18:05 18.74588 61.52869 33799 ft 496 kts 317°
2026-04-28 18:06 18.79767 61.48041 33801 ft 496 kts 317°
2026-04-28 18:06 18.84935 61.43220 33791 ft 495 kts 317°
2026-04-28 18:07 18.90083 61.38413 33791 ft 493 kts 317°
2026-04-28 18:07 18.95224 61.33609 33790 ft 493 kts 317°
2026-04-28 18:08 19.00358 61.28807 33788 ft 493 kts 317°
2026-04-28 18:08 19.05465 61.24026 33794 ft 493 kts 316°
2026-04-28 18:09 19.10601 61.19214 33781 ft 493 kts 316°
2026-04-28 18:09 19.15742 61.14392 33783 ft 493 kts 316°
2026-04-28 18:10 19.20873 61.09577 33785 ft 493 kts 316°
2026-04-28 18:10 19.26006 61.04755 33782 ft 493 kts 316°
2026-04-28 18:11 19.31140 60.99928 33774 ft 494 kts 316°
2026-04-28 18:11 19.36288 60.95083 33789 ft 495 kts 316°
2026-04-28 18:12 19.41436 60.90234 33788 ft 495 kts 316°
2026-04-28 18:12 19.46557 60.85407 33787 ft 496 kts 316°
2026-04-28 18:13 19.51712 60.80544 33772 ft 496 kts 316°
2026-04-28 18:13 19.56865 60.75677 33774 ft 496 kts 316°
2026-04-28 18:14 19.62019 60.70805 33778 ft 496 kts 316°
2026-04-28 18:14 19.67175 60.65927 33780 ft 496 kts 316°
2026-04-28 18:15 19.72323 60.61053 33778 ft 496 kts 316°
2026-04-28 18:15 19.77472 60.56172 33782 ft 496 kts 316°
2026-04-28 18:16 19.82588 60.51319 33770 ft 496 kts 316°
2026-04-28 18:16 19.87735 60.46431 33770 ft 496 kts 316°
2026-04-28 18:17 19.92882 60.41539 33769 ft 496 kts 316°
2026-04-28 18:17 19.98025 60.36645 33784 ft 496 kts 316°
2026-04-28 18:18 20.03174 60.31756 33782 ft 496 kts 317°
2026-04-28 18:18 20.07791 60.28111 33766 ft 500 kts 326°
2026-04-28 18:19 20.14801 60.23734 33766 ft 500 kts 327°
2026-04-28 18:19 20.20802 60.19988 33772 ft 500 kts 327°
2026-04-28 18:20 20.26783 60.16209 33762 ft 500 kts 327°
2026-04-28 18:20 20.32717 60.12438 33768 ft 500 kts 327°
2026-04-28 18:21 20.38689 60.08638 33764 ft 500 kts 327°
2026-04-28 18:21 20.44657 60.04840 33764 ft 499 kts 327°
2026-04-28 18:22 20.50617 60.01045 33760 ft 499 kts 327°
2026-04-28 18:22 20.56573 59.97249 33764 ft 498 kts 327°
2026-04-28 18:23 20.62526 59.93450 33762 ft 498 kts 327°
2026-04-28 18:23 20.68475 59.89652 33761 ft 498 kts 327°
2026-04-28 18:24 20.73418 59.86492 33757 ft 498 kts 327°
2026-04-28 18:24 20.80366 59.82047 33756 ft 498 kts 327°
2026-04-28 18:25 20.86308 59.78241 33765 ft 498 kts 327°
2026-04-28 18:26 20.95177 59.72552 33752 ft 495 kts 326°
2026-04-28 18:26 20.97909 59.70346 33742 ft 491 kts 313°
2026-04-28 18:26 21.00108 59.67567 33755 ft 488 kts 303°
2026-04-28 18:27 21.02971 59.61046 33769 ft 484 kts 286°
2026-04-28 18:27 21.04892 59.54119 33762 ft 486 kts 286°
2026-04-28 18:28 21.06862 59.47169 33765 ft 489 kts 287°
2026-04-28 18:28 21.08883 59.40204 33758 ft 491 kts 287°
2026-04-28 18:29 21.10925 59.33214 33758 ft 491 kts 287°
2026-04-28 18:29 21.12961 59.26229 33752 ft 491 kts 287°
2026-04-28 18:30 21.14979 59.19287 33750 ft 490 kts 287°
2026-04-28 18:30 21.17004 59.12305 33758 ft 489 kts 287°
2026-04-28 18:31 21.19017 59.05353 33758 ft 488 kts 287°
2026-04-28 18:31 21.21026 58.98405 33745 ft 488 kts 287°
2026-04-28 18:32 21.23035 58.91440 33769 ft 490 kts 287°
2026-04-28 18:32 21.24709 58.85629 33763 ft 491 kts 287°
2026-04-28 18:33 21.27050 58.77494 33759 ft 491 kts 287°
2026-04-28 18:33 21.29064 58.70494 33761 ft 491 kts 287°
2026-04-28 18:34 21.30738 58.64671 33758 ft 491 kts 287°
2026-04-28 18:34 21.32745 58.57673 33750 ft 491 kts 287°
2026-04-28 18:35 21.34749 58.50671 33750 ft 490 kts 287°
2026-04-28 18:35 21.36749 58.43670 33740 ft 490 kts 287°
2026-04-28 18:36 21.38734 58.36712 33749 ft 491 kts 287°
2026-04-28 18:36 21.40740 58.29666 33741 ft 490 kts 287°
2026-04-28 18:37 21.42717 58.22713 33739 ft 490 kts 287°
2026-04-28 18:37 21.44701 58.15721 33737 ft 490 kts 287°
2026-04-28 18:38 21.46682 58.08727 33730 ft 489 kts 287°
2026-04-28 18:38 21.48659 58.01736 33738 ft 489 kts 287°
2026-04-28 18:39 21.50632 57.94747 33741 ft 489 kts 287°
2026-04-28 18:39 21.52603 57.87751 33731 ft 489 kts 287°
2026-04-28 18:40 21.54558 57.80802 33744 ft 489 kts 287°
2026-04-28 18:40 21.56522 57.73803 33754 ft 489 kts 287°
2026-04-28 18:41 21.58485 57.66803 33747 ft 488 kts 287°
2026-04-28 18:41 21.60437 57.59814 33745 ft 488 kts 287°
2026-04-28 18:42 21.62383 57.52826 33748 ft 487 kts 287°
2026-04-28 18:42 21.64323 57.45849 33748 ft 487 kts 287°
2026-04-28 18:43 21.66261 57.38867 33748 ft 487 kts 287°
2026-04-28 18:43 21.68199 57.31875 33751 ft 488 kts 287°
2026-04-28 18:44 21.70133 57.24880 33747 ft 488 kts 287°
2026-04-28 18:44 21.73019 57.14422 33751 ft 489 kts 286°
2026-04-28 18:45 21.74948 57.07411 33752 ft 489 kts 286°
2026-04-28 18:45 21.76874 57.00392 33751 ft 489 kts 286°
2026-04-28 18:46 21.78796 56.93373 33751 ft 489 kts 286°
2026-04-28 18:46 21.80718 56.86344 33752 ft 489 kts 286°
2026-04-28 18:47 21.82636 56.79315 33746 ft 489 kts 286°
2026-04-28 18:47 21.84551 56.72287 33751 ft 489 kts 286°
2026-04-28 18:48 21.86466 56.65252 33766 ft 489 kts 287°
2026-04-28 18:48 21.88377 56.58226 33752 ft 488 kts 287°
2026-04-28 18:49 21.89960 56.52395 33749 ft 488 kts 287°
2026-04-28 18:49 21.92164 56.44260 33749 ft 486 kts 286°
2026-04-28 18:50 21.94053 56.37273 33750 ft 486 kts 286°
2026-04-28 18:50 21.95944 56.30283 33744 ft 486 kts 287°
2026-04-28 18:51 21.97842 56.23291 33747 ft 486 kts 287°
2026-04-28 18:51 21.99739 56.16287 33746 ft 487 kts 286°
2026-04-28 18:52 22.01634 56.09275 33754 ft 487 kts 287°
2026-04-28 18:52 22.03521 56.02258 33748 ft 487 kts 286°
2026-04-28 18:53 22.05394 55.95239 33740 ft 486 kts 286°
2026-04-28 18:53 22.07260 55.88233 33740 ft 486 kts 286°
2026-04-28 18:54 22.09122 55.81233 33740 ft 485 kts 286°
2026-04-28 18:54 22.10980 55.74236 33740 ft 485 kts 286°
2026-04-28 18:55 22.12523 55.68418 33744 ft 485 kts 286°
2026-04-28 18:55 22.14577 55.60248 33730 ft 486 kts 281°
2026-04-28 18:56 22.15263 55.52998 33742 ft 486 kts 272°
2026-04-28 18:56 22.14923 55.45718 33738 ft 486 kts 266°
2026-04-28 18:57 22.14279 55.38461 33736 ft 486 kts 266°
2026-04-28 18:57 22.13640 55.31205 33732 ft 485 kts 266°
2026-04-28 18:58 22.13032 55.24011 33721 ft 475 kts 266°
2026-04-28 18:58 22.12438 55.16865 33746 ft 480 kts 266°
2026-04-28 18:59 22.11838 55.09655 33744 ft 485 kts 266°
2026-04-28 18:59 22.11231 55.02438 33725 ft 487 kts 266°
2026-04-28 19:00 22.10615 54.95152 33737 ft 488 kts 266°
2026-04-28 19:00 22.09994 54.87856 33733 ft 488 kts 266°
2026-04-28 19:01 22.09372 54.80580 33730 ft 486 kts 266°
2026-04-28 19:01 22.08748 54.73324 33736 ft 485 kts 266°
2026-04-28 19:02 22.08123 54.66096 33734 ft 484 kts 266°
2026-04-28 19:02 22.07497 54.58879 33738 ft 483 kts 266°
2026-04-28 19:03 22.06868 54.51671 33732 ft 483 kts 266°
2026-04-28 19:03 22.06236 54.44471 33733 ft 483 kts 266°
2026-04-28 19:04 22.05600 54.37258 33740 ft 484 kts 266°
2026-04-28 19:04 22.04963 54.30073 33732 ft 485 kts 266°
2026-04-28 19:05 22.04318 54.22833 33742 ft 485 kts 266°
2026-04-28 19:05 22.03669 54.15583 33739 ft 486 kts 266°
2026-04-28 19:06 22.03128 54.09554 33743 ft 486 kts 266°
2026-04-28 19:06 22.02362 54.01079 33741 ft 486 kts 266°
2026-04-28 19:07 22.01703 53.93836 33744 ft 485 kts 266°
2026-04-28 19:07 22.01043 53.86610 33746 ft 483 kts 266°
2026-04-28 19:08 22.00388 53.79473 33739 ft 481 kts 266°
2026-04-28 19:08 21.99726 53.72294 33785 ft 480 kts 266°
2026-04-28 19:09 21.99064 53.65142 33782 ft 480 kts 266°
2026-04-28 19:09 21.98399 53.57993 33784 ft 480 kts 266°
2026-04-28 19:10 21.97728 53.50818 33783 ft 481 kts 266°
2026-04-28 19:10 21.97052 53.43623 33780 ft 484 kts 266°
2026-04-28 19:11 21.96368 53.36368 33782 ft 487 kts 266°
2026-04-28 19:11 21.95677 53.29090 33779 ft 489 kts 266°
2026-04-28 19:12 21.94980 53.21785 33776 ft 491 kts 266°
2026-04-28 19:12 21.94279 53.14464 33772 ft 491 kts 266°
2026-04-28 19:13 21.93574 53.07141 33779 ft 491 kts 266°
2026-04-28 19:13 21.92871 52.99870 33778 ft 491 kts 266°
2026-04-28 19:14 21.92162 52.92564 33773 ft 490 kts 266°
2026-04-28 19:14 21.91450 52.85265 33779 ft 490 kts 266°
2026-04-28 19:15 21.90736 52.77970 33778 ft 489 kts 266°
2026-04-28 19:15 21.90408 52.71906 33777 ft 487 kts 272°
2026-04-28 19:16 21.91214 52.63447 33780 ft 485 kts 282°
2026-04-28 19:16 21.92559 52.56326 33796 ft 485 kts 282°
2026-04-28 19:17 21.93907 52.49208 33773 ft 484 kts 282°
2026-04-28 19:17 21.95215 52.42157 33772 ft 483 kts 282°
2026-04-28 19:18 21.96517 52.35049 33782 ft 483 kts 282°
2026-04-28 19:18 21.97809 52.27955 33778 ft 482 kts 282°
2026-04-28 19:19 21.99100 52.20855 33780 ft 483 kts 282°
2026-04-28 19:19 22.00389 52.13752 33783 ft 483 kts 282°
2026-04-28 19:20 22.01676 52.06640 33775 ft 483 kts 282°
2026-04-28 19:20 22.02952 51.99575 33787 ft 483 kts 281°
2026-04-28 19:21 22.04232 51.92467 33784 ft 483 kts 281°
2026-04-28 19:21 22.05296 51.86549 33779 ft 482 kts 281°
2026-04-28 19:22 22.06363 51.80598 33778 ft 482 kts 281°
2026-04-28 19:22 22.07837 51.72355 33778 ft 482 kts 281°
2026-04-28 19:23 22.09102 51.65260 33783 ft 482 kts 281°
2026-04-28 19:23 22.10366 51.58153 33782 ft 482 kts 281°
2026-04-28 19:24 22.11627 51.51044 33778 ft 483 kts 281°
2026-04-28 19:24 22.12050 51.48656 33782 ft 483 kts 281°
2026-04-28 19:25 22.13193 51.42190 33786 ft 483 kts 281°
2026-04-28 19:25 22.14449 51.35069 33780 ft 482 kts 281°
2026-04-28 19:26 22.15690 51.28015 33771 ft 481 kts 281°
2026-04-28 19:26 22.16933 51.20927 33776 ft 480 kts 281°
2026-04-28 19:27 22.18173 51.13843 33784 ft 480 kts 281°
2026-04-28 19:27 22.19408 51.06765 33787 ft 480 kts 281°
2026-04-28 19:28 22.20640 50.99687 33782 ft 480 kts 281°
2026-04-28 19:28 22.21871 50.92595 33786 ft 480 kts 281°
2026-04-28 19:29 22.22890 50.86707 33790 ft 480 kts 281°
2026-04-28 19:29 22.24313 50.78470 33784 ft 479 kts 281°
2026-04-28 19:30 22.25530 50.71400 33779 ft 479 kts 281°
2026-04-28 19:30 22.26743 50.64335 33770 ft 478 kts 281°
2026-04-28 19:31 22.27951 50.57280 33783 ft 478 kts 281°
2026-04-28 19:31 22.29158 50.50217 33775 ft 478 kts 280°
2026-04-28 19:32 22.30361 50.43154 33783 ft 478 kts 280°
2026-04-28 19:32 22.31555 50.36126 33777 ft 479 kts 280°
2026-04-28 19:33 22.32754 50.29049 33781 ft 478 kts 280°
2026-04-28 19:33 22.33947 50.21989 33777 ft 477 kts 280°
2026-04-28 19:34 22.35135 50.14939 33779 ft 476 kts 280°
2026-04-28 19:34 22.36318 50.07895 33776 ft 475 kts 280°
2026-04-28 19:35 22.37496 50.00865 33779 ft 475 kts 280°
2026-04-28 19:35 22.38668 49.93852 33777 ft 474 kts 280°
2026-04-28 19:36 22.39830 49.86880 33779 ft 474 kts 280°
2026-04-28 19:36 22.40998 49.79853 33777 ft 475 kts 280°
2026-04-28 19:37 22.41974 49.73966 33776 ft 475 kts 280°
2026-04-28 19:37 22.43325 49.65792 33780 ft 475 kts 280°
2026-04-28 19:38 22.44485 49.58754 33775 ft 476 kts 280°
2026-04-28 19:38 22.45644 49.51705 33787 ft 476 kts 280°
2026-04-28 19:39 22.46800 49.44649 33773 ft 476 kts 279°
2026-04-28 19:39 22.47946 49.37642 33771 ft 476 kts 279°
2026-04-28 19:40 22.49094 49.30597 33773 ft 476 kts 279°
2026-04-28 19:40 22.50240 49.23545 33788 ft 475 kts 279°
2026-04-28 19:41 22.51379 49.16516 33771 ft 474 kts 279°
2026-04-28 19:41 22.52512 49.09503 33771 ft 473 kts 279°
2026-04-28 19:42 22.53641 49.02495 33770 ft 472 kts 279°
2026-04-28 19:42 22.54575 48.96684 33773 ft 471 kts 279°
2026-04-28 19:43 22.55878 48.88551 33772 ft 472 kts 279°
2026-04-28 19:43 22.56996 48.81555 33774 ft 472 kts 279°
2026-04-28 19:44 22.58112 48.74552 33771 ft 472 kts 279°
2026-04-28 19:44 22.59224 48.67547 33989 ft 472 kts 279°
2026-04-28 19:45 22.59778 48.64054 34153 ft 470 kts 279°
2026-04-28 19:45 22.60330 48.60565 34314 ft 469 kts 279°
2026-04-28 19:45 22.60881 48.57080 34440 ft 470 kts 279°
2026-04-28 19:45 22.61431 48.53591 34552 ft 470 kts 279°
2026-04-28 19:46 22.61981 48.50104 34666 ft 470 kts 279°
2026-04-28 19:46 22.62522 48.46660 34806 ft 470 kts 278°
2026-04-28 19:46 22.63070 48.43178 34973 ft 469 kts 278°
2026-04-28 19:46 22.63616 48.39694 35102 ft 469 kts 278°
2026-04-28 19:47 22.64160 48.36221 35299 ft 468 kts 278°
2026-04-28 19:47 22.64701 48.32763 35609 ft 464 kts 278°
2026-04-28 19:47 22.65238 48.29332 35778 ft 462 kts 278°
2026-04-28 19:47 22.65772 48.25908 35768 ft 458 kts 278°
2026-04-28 19:48 22.66823 48.19157 35777 ft 452 kts 278°
2026-04-28 19:48 22.67860 48.12471 35770 ft 445 kts 278°
2026-04-28 19:49 22.68882 48.05865 35786 ft 448 kts 278°
2026-04-28 19:49 22.69638 47.99130 35789 ft 453 kts 274°
2026-04-28 19:50 22.70461 47.88859 35782 ft 459 kts 274°
2026-04-28 19:51 22.71020 47.81964 35783 ft 460 kts 274°
2026-04-28 19:51 22.71587 47.75068 35789 ft 459 kts 274°
2026-04-28 19:52 22.72148 47.68242 35786 ft 457 kts 274°
2026-04-28 19:52 22.72706 47.61406 35801 ft 454 kts 274°
2026-04-28 19:53 22.73258 47.54601 35792 ft 452 kts 274°
2026-04-28 19:53 22.73805 47.47825 35808 ft 450 kts 274°
2026-04-28 19:54 22.74346 47.41077 35813 ft 449 kts 274°
2026-04-28 19:54 22.74884 47.34338 35804 ft 449 kts 274°
2026-04-28 19:55 22.75420 47.27591 35830 ft 450 kts 274°
2026-04-28 19:55 22.75955 47.20817 35827 ft 452 kts 274°
2026-04-28 19:56 22.76493 47.14021 35834 ft 454 kts 274°
2026-04-28 19:56 22.77037 47.07238 35832 ft 455 kts 274°
2026-04-28 19:57 22.77582 47.00411 35850 ft 455 kts 274°
2026-04-28 19:57 22.78124 46.93583 35849 ft 454 kts 274°
2026-04-28 19:58 22.78660 46.86768 35839 ft 453 kts 274°
2026-04-28 19:58 22.79193 46.79965 35850 ft 452 kts 274°
2026-04-28 19:59 22.79721 46.73178 35862 ft 451 kts 273°
2026-04-28 19:59 22.80246 46.66402 35866 ft 451 kts 273°
2026-04-28 20:00 22.80764 46.59672 35868 ft 451 kts 273°
2026-04-28 20:00 22.81283 46.52897 35879 ft 451 kts 273°
2026-04-28 20:01 22.81800 46.46113 35898 ft 451 kts 273°
2026-04-28 20:01 22.82314 46.39327 35893 ft 451 kts 273°
2026-04-28 20:02 22.82820 46.32543 35886 ft 451 kts 273°
2026-04-28 20:02 22.83318 46.25765 35893 ft 450 kts 273°
2026-04-28 20:03 22.83811 46.19039 35885 ft 450 kts 273°
2026-04-28 20:03 22.84304 46.12264 35876 ft 450 kts 273°
2026-04-28 20:04 22.84796 46.05480 35880 ft 452 kts 273°
2026-04-28 20:04 22.85286 45.98687 35867 ft 452 kts 273°
2026-04-28 20:05 22.85773 45.91877 35893 ft 453 kts 273°
2026-04-28 20:05 22.86258 45.85076 35884 ft 452 kts 273°
2026-04-28 20:06 22.86736 45.78319 35882 ft 451 kts 273°
2026-04-28 20:06 22.87213 45.71538 35867 ft 450 kts 273°
2026-04-28 20:07 22.87686 45.64767 35874 ft 449 kts 273°
2026-04-28 20:07 22.88155 45.58021 35886 ft 449 kts 273°
2026-04-28 20:08 22.88621 45.51275 35870 ft 448 kts 273°
2026-04-28 20:08 22.89081 45.44565 35874 ft 448 kts 273°
2026-04-28 20:09 22.89540 45.37822 35881 ft 449 kts 273°
2026-04-28 20:09 22.89999 45.31068 35878 ft 449 kts 272°
2026-04-28 20:10 22.90455 45.24298 35880 ft 450 kts 272°
2026-04-28 20:10 22.90831 45.18671 35874 ft 450 kts 272°
2026-04-28 20:11 22.91282 45.11898 35880 ft 450 kts 272°
2026-04-28 20:11 22.91731 45.05119 35882 ft 451 kts 272°
2026-04-28 20:12 22.92179 44.98325 35884 ft 451 kts 272°
2026-04-28 20:12 22.92625 44.91525 35878 ft 452 kts 272°
2026-04-28 20:13 22.93066 44.84726 35883 ft 452 kts 272°
2026-04-28 20:13 22.93507 44.77923 35884 ft 452 kts 272°
2026-04-28 20:14 22.93953 44.71116 35885 ft 452 kts 274°
2026-04-28 20:14 22.95053 44.64425 35903 ft 454 kts 282°
2026-04-28 20:15 22.96999 44.57883 35894 ft 456 kts 286°
2026-04-28 20:15 22.99045 44.51378 35893 ft 455 kts 286°
2026-04-28 20:16 23.01072 44.44866 35901 ft 455 kts 285°
2026-04-28 20:16 23.03082 44.38353 35905 ft 455 kts 285°
2026-04-28 20:17 23.05082 44.31847 35894 ft 454 kts 285°
2026-04-28 20:17 23.07066 44.25381 35896 ft 454 kts 285°
2026-04-28 20:18 23.09057 44.18887 35905 ft 453 kts 285°
2026-04-28 20:18 23.11044 44.12391 35898 ft 453 kts 285°
2026-04-28 20:19 23.13027 44.05902 35901 ft 453 kts 285°
2026-04-28 20:19 23.15008 43.99411 35923 ft 452 kts 285°
2026-04-28 20:20 23.16985 43.92918 35918 ft 452 kts 285°
2026-04-28 20:20 23.18957 43.86428 35911 ft 452 kts 285°
2026-04-28 20:21 23.20924 43.79945 35927 ft 451 kts 285°
2026-04-28 20:21 23.22889 43.73461 35929 ft 451 kts 285°
2026-04-28 20:22 23.24836 43.67022 35939 ft 452 kts 285°
2026-04-28 20:22 23.26796 43.60534 35943 ft 452 kts 285°
2026-04-28 20:23 23.28757 43.54028 35948 ft 452 kts 285°
2026-04-28 20:23 23.30712 43.47525 35954 ft 453 kts 285°
2026-04-28 20:24 23.32667 43.41005 35971 ft 453 kts 284°
2026-04-28 20:24 23.34619 43.34483 35969 ft 453 kts 284°
2026-04-28 20:25 23.36567 43.27967 35971 ft 453 kts 284°
2026-04-28 20:25 23.38514 43.21443 35982 ft 453 kts 284°
2026-04-28 20:26 23.40444 43.14967 35980 ft 452 kts 284°
2026-04-28 20:26 23.42375 43.08457 35989 ft 452 kts 284°
2026-04-28 20:27 23.44300 43.01934 35997 ft 452 kts 284°
2026-04-28 20:27 23.46222 42.95410 35987 ft 452 kts 284°
2026-04-28 20:28 23.48142 42.88888 35993 ft 452 kts 284°
2026-04-28 20:28 23.50059 42.82364 35988 ft 452 kts 284°
2026-04-28 20:29 23.51972 42.75842 35991 ft 452 kts 284°
2026-04-28 20:29 23.53882 42.69361 35990 ft 452 kts 284°
2026-04-28 20:30 23.55810 42.62840 35989 ft 452 kts 284°
2026-04-28 20:30 23.57734 42.56316 35995 ft 452 kts 284°
2026-04-28 20:31 23.59654 42.49784 35988 ft 452 kts 284°
2026-04-28 20:31 23.61573 42.43248 35989 ft 452 kts 284°
2026-04-28 20:32 23.63486 42.36716 35998 ft 452 kts 284°
2026-04-28 20:32 23.65384 42.30228 35988 ft 451 kts 284°
2026-04-28 20:33 23.67279 42.23702 35987 ft 451 kts 284°
2026-04-28 20:33 23.69155 42.17181 35998 ft 451 kts 283°
2026-04-28 20:34 23.71031 42.10649 35994 ft 450 kts 283°
2026-04-28 20:34 23.72904 42.04125 35995 ft 450 kts 283°
2026-04-28 20:35 23.74773 41.97608 36002 ft 450 kts 284°
2026-04-28 20:35 23.76666 41.91099 35991 ft 450 kts 284°
2026-04-28 20:36 23.78559 41.84592 35990 ft 449 kts 284°
2026-04-28 20:36 23.80446 41.78086 35990 ft 449 kts 284°
2026-04-28 20:37 23.82322 41.71577 35985 ft 449 kts 283°
2026-04-28 20:37 23.84190 41.65064 35989 ft 449 kts 283°
2026-04-28 20:38 23.86055 41.58558 35988 ft 449 kts 283°
2026-04-28 20:38 23.87905 41.52093 35995 ft 448 kts 283°
2026-04-28 20:39 23.89756 41.45599 35984 ft 447 kts 283°
2026-04-28 20:39 23.91604 41.39109 35982 ft 447 kts 283°
2026-04-28 20:40 23.93449 41.32618 35988 ft 446 kts 283°
2026-04-28 20:40 23.95289 41.26130 35983 ft 446 kts 283°
2026-04-28 20:41 23.97124 41.19648 35981 ft 446 kts 283°
2026-04-28 20:41 23.98954 41.13171 35989 ft 445 kts 283°
2026-04-28 20:42 24.00779 41.06697 35979 ft 445 kts 283°
2026-04-28 20:42 24.02599 41.00233 35978 ft 445 kts 283°
2026-04-28 20:43 24.04418 40.93761 35975 ft 445 kts 283°
2026-04-28 20:43 24.06220 40.87334 35987 ft 444 kts 283°
2026-04-28 20:44 24.08029 40.80867 35968 ft 444 kts 283°
2026-04-28 20:44 24.09834 40.74402 35970 ft 444 kts 283°
2026-04-28 20:45 24.11635 40.67936 35980 ft 443 kts 283°
2026-04-28 20:45 24.13433 40.61474 35980 ft 444 kts 283°
2026-04-28 20:46 24.15229 40.55007 35976 ft 444 kts 283°
2026-04-28 20:46 24.17469 40.48726 35960 ft 450 kts 291°
2026-04-28 20:47 24.20410 40.42657 35968 ft 451 kts 292°
2026-04-28 20:47 24.23342 40.36579 35978 ft 451 kts 292°
2026-04-28 20:48 24.25971 40.31087 35963 ft 451 kts 292°